Regional Weather Roundup
Issued by NWS Kansas City/Pleasant Hill, MO

Home | Current Version | Previous Version | Text Only | Print | Product List | Glossary On
Versions: 1 2 3 4 5 6 7 8 9 10 11 12 13 14 15 16 17 18 19 20 21 22 23 24 25 26 27 28 29 30 31 32 33 34 35 36 37 38 39 40 41 42 43 44 45 46 47 48 49 50
486
ASUS43 KEAX 201410
RWREAX

WEATHER ROUNDUP FOR EASTERN KANSAS AND NORTHWEST MISSOURI
NATIONAL WEATHER SERVICE KANSAS CITY/PLEASANT HILL MO
900 AM CDT SUN AUG 20 2017

KSZ040-057-103>105-MOZ028-029-037-043-201500-
...KANSAS CITY METROPOLITAN AREA...

CITY           SKY/WX    TMP DP  RH WIND       PRES   REMARKS
K.C. INTL      CLOUDY    70  67  90 E6        30.04R THUNDER
K.C. DOWNTOWN  CLOUDY    72  68  87 E6        30.02R
LEES SUMMIT    SUNNY     70  68  93 E8        30.05R
OLATHE - IXD   MOSUNNY   72  65  78 E8        30.04R
OLATHE - OJC   CLOUDY    72  67  84 NE9       30.04R
LAWRENCE       CLOUDY    73  69  87 VRB6      30.02R

$$

MOZ001>008-011>017-020>025-030>033-038>040-044>046-053-054-201500-
...NORTHERN AND CENTRAL MISSOURI...

CITY           SKY/WX    TMP DP  RH WIND       PRES   REMARKS
ST. JOSEPH     PTSUNNY   70  68  93 SE9       29.96F
MOSBY          CLOUDY    68  66  94 CALM      30.03R
WARRENSBURG    CLOUDY    70  64  83 E8        30.03R
WHITEMAN AFB   PTSUNNY   71  71 100 E3        30.03R THUNDER
CLINTON        CLOUDY    72  68  88 E7        30.05S
SEDALIA        CLOUDY    72  70  93 E6        30.04F
WARSAW         NOT AVBL
CHILLICOTHE      N/A     69  69 100 CALM      30.10R
KIRKSVILLE     RAIN      69  64  84 SW9       30.09R

$$

MOZ041-047>049-056>058-063>065-088>090-097-201500-
...EASTERN AND SOUTHERN MISSOURI...

CITY           SKY/WX    TMP DP  RH WIND       PRES   REMARKS
ST. LOUIS INTL CLOUDY    81  73  76 SW6       30.04R
SPIRIT OF STL  CLOUDY    78  74  87 N3        30.03R
COLUMBIA       CLOUDY    73  67  81 N7        30.05F
JEFFERSON CITY CLOUDY    74  69  85 NW6       30.06R
ROLLA          CLOUDY    77  74  90 SW9       30.06R
OSAGE BEACH    PTSUNNY   74  68  81 N9G20     30.08  THUNDER
SPRINGFIELD    PTSUNNY   79  75  87 S9        30.06R
BRANSON        MOSUNNY   82  73  74 SW6       30.08R
JOPLIN         SUNNY     84  77  79 S9        30.03R HX  94
WEST PLAINS    SUNNY     82  74  76 W7        30.09R

$$

IAZ060-094-KSZ022-034>040-054-083-096-NEZ052-066-093-201500-
...KANSAS...SOUTHEAST NEBRASKA AND IOWA...

CITY           SKY/WX    TMP DP  RH WIND       PRES   REMARKS
TOPEKA         CLOUDY    72  70  93 E10       30.00R
MANHATTAN      MOSUNNY   76  68  76 SE7       29.95F
EMPORIA        MOSUNNY   77  67  71 E10       30.00R
CHANUTE        SUNNY     83  72  69 N6        30.02R
WICHITA        PTSUNNY   79  70  74 S8        29.97R
OMAHA          PTSUNNY   71  65  81 S8        29.91R
LINCOLN        CLOUDY    69  64  84 S6        29.91R
FALLS CITY     CLOUDY    70  65  84 SE12      29.93F
LAMONI         CLOUDY    70  64  81 S18G25    29.94F
DES MOINES     CLOUDY    70  67  90 CALM      29.95S

$$





USA.gov is the U.S. government's official web portal to all federal, state and local government web resources and services.